Monroe, WI

11:39 AM CDT on March 25, 2017 (GMT -0500)
Monroe Municipal

Weather History for KEFT - January, 2013

Change the Weather History Date:

Saturday, January 19, 2013

  Actual Average Record
Temperature  
Mean Temperature 32 °F -  
Max Temperature 44 °F 0 °F 48 °F (2006)
Min Temperature 17 °F - -14 °F (2008)
Degree Days  
Heating Degree Days 34    
Moisture  
Dew Point 28 °F    
Average Humidity 71    
Maximum Humidity 93    
Minimum Humidity 47    
Precipitation  
Precipitation 0.00 in - - ()
Sea Level Pressure  
Sea Level Pressure 29.78 in    
Wind  
Wind Speed 20 mph (WSW)    
Max Wind Speed 44 mph    
Max Gust Speed 58 mph    
Visibility 10 miles    
Events      
Averages and records for this station are not official NWS values.
T = Trace of Precipitation, MM = Missing Value Source: NWS Daily Summary

Daily Weather History Graph

Daily Weather History Graph

Search for Another Location

Airport or City:

Trip Planner

Search our weather history database for the weather conditions in past years. The results will help you decide how hot, cold, wet, or windy it might be!

Date:

Astronomy

Jan. 19, 2013 Rise Set
Actual Time 7:23 AM CST 4:55 PM CST
Civil Twilight 6:52 AM CST 5:26 PM CST
Nautical Twilight 6:17 AM CST 6:00 PM CST
Astronomical Twilight 5:44 AM CST 6:34 PM CST
Moon 11:23 AM CST (1/19) 12:55 AM CST (1/19)
Length of Visible Light 10h 34m
Length of Day
9h 32m
First Quarter, 57% of the Moon is Illuminated
Jan 19
First Quarter
Jan 26
Full
Feb 3
Last Quarter
Feb 10
New
Feb 17
First Quarter

Hourly Weather History & Observations

Time (CST) Temp. Windchill Dew Point Humidity Pressure Visibility Wind Dir Wind Speed Gust Speed Precip Events Conditions
12:15 AM 35.6 °F 26.6 °F 32.0 °F 87% 29.83 in 10.0 mi SW 13.8 mph - N/A   Clear
12:35 AM 35.6 °F 25.5 °F 32.0 °F 87% 29.83 in 10.0 mi SW 17.3 mph - N/A   Clear
12:55 AM 35.6 °F 25.5 °F 32.0 °F 87% 29.83 in 10.0 mi SW 17.3 mph - N/A   Clear
1:15 AM 35.6 °F 25.5 °F 32.0 °F 87% 29.83 in 10.0 mi SW 17.3 mph - N/A   Clear
1:35 AM 35.6 °F 25.2 °F 32.0 °F 87% 29.84 in 10.0 mi SW 18.4 mph 23.0 mph N/A   Clear
1:55 AM 35.6 °F 25.2 °F 32.0 °F 87% 29.84 in 10.0 mi SW 18.4 mph - N/A   Clear
2:15 AM 35.6 °F 25.5 °F 32.0 °F 87% 29.84 in 10.0 mi SW 17.3 mph 24.2 mph N/A   Clear
2:35 AM 35.6 °F 25.5 °F 32.0 °F 87% 29.84 in 10.0 mi SW 17.3 mph - N/A   Clear
2:55 AM 35.6 °F 25.5 °F 32.0 °F 87% 29.83 in 10.0 mi SW 17.3 mph - N/A   Clear
3:15 AM 35.6 °F 25.5 °F 32.0 °F 87% 29.83 in 10.0 mi SW 17.3 mph - N/A   Clear
3:35 AM 35.6 °F 25.5 °F 32.0 °F 87% 29.83 in 10.0 mi SW 17.3 mph 21.9 mph N/A   Clear
3:55 AM 35.6 °F 25.5 °F 32.0 °F 87% 29.82 in 10.0 mi SW 17.3 mph - N/A   Clear
4:15 AM 35.6 °F 26.2 °F 32.0 °F 87% 29.82 in 10.0 mi SW 15.0 mph - N/A   Scattered Clouds
4:35 AM 35.6 °F 26.2 °F 33.8 °F 93% 29.81 in 10.0 mi SSW 15.0 mph - N/A   Scattered Clouds
4:55 AM 35.6 °F 26.2 °F 33.8 °F 93% 29.81 in 10.0 mi SSW 15.0 mph - N/A   Clear
5:15 AM 35.6 °F 26.6 °F 33.8 °F 93% 29.80 in 10.0 mi SSW 13.8 mph - N/A   Clear
5:35 AM 35.6 °F 26.6 °F 33.8 °F 93% 29.80 in 10.0 mi SSW 13.8 mph - N/A   Clear
7:15 AM 35.6 °F 26.2 °F 32.0 °F 87% 29.79 in 10.0 mi SSW 15.0 mph - N/A   Scattered Clouds
7:55 AM 37.4 °F 28.2 °F 32.0 °F 81% 29.78 in 10.0 mi SSW 16.1 mph - N/A   Overcast
8:15 AM 37.4 °F 28.5 °F 32.0 °F 81% 29.79 in 10.0 mi SW 15.0 mph - N/A   Overcast
8:35 AM 37.4 °F 28.5 °F 32.0 °F 81% 29.79 in 10.0 mi SW 15.0 mph - N/A   Scattered Clouds
9:35 AM 37.4 °F 27.5 °F 32.0 °F 81% 29.78 in 10.0 mi SW 18.4 mph 24.2 mph N/A   Clear
9:55 AM 37.4 °F 28.5 °F 32.0 °F 81% 29.77 in 10.0 mi SW 15.0 mph - N/A   Clear
10:15 AM 37.4 °F 28.5 °F 32.0 °F 81% 29.76 in 10.0 mi SSW 15.0 mph - N/A   Clear
10:35 AM 39.2 °F 29.3 °F 32.0 °F 75% 29.76 in 10.0 mi SW 20.7 mph - N/A   Scattered Clouds
10:55 AM 39.2 °F 29.0 °F 32.0 °F 75% 29.74 in 10.0 mi SSW 21.9 mph 27.6 mph N/A   Scattered Clouds
11:15 AM 39.2 °F 29.6 °F 32.0 °F 75% 29.74 in 10.0 mi SW 19.6 mph 26.5 mph N/A   Mostly Cloudy
11:35 AM 39.2 °F 29.3 °F 32.0 °F 75% 29.73 in 10.0 mi SW 20.7 mph 27.6 mph N/A   Scattered Clouds
11:55 AM 39.2 °F 28.7 °F 32.0 °F 75% 29.71 in 10.0 mi SW 23.0 mph 29.9 mph N/A   Scattered Clouds
12:15 PM 41.0 °F 30.7 °F 32.0 °F 70% 29.69 in 10.0 mi SW 25.3 mph 28.8 mph N/A   Clear
12:35 PM 41.0 °F 31.1 °F 32.0 °F 70% 29.68 in 10.0 mi SW 23.0 mph 28.8 mph N/A   Clear
12:55 PM 42.8 °F 33.5 °F 32.0 °F 66% 29.68 in 10.0 mi SW 23.0 mph 31.1 mph N/A   Clear
1:15 PM 42.8 °F 34.0 °F 32.0 °F 66% 29.68 in 10.0 mi SW 20.7 mph 28.8 mph N/A   Clear
1:35 PM 42.8 °F 34.0 °F 32.0 °F 66% 29.69 in 10.0 mi WSW 20.7 mph 26.5 mph N/A   Clear
1:55 PM 42.8 °F 34.3 °F 32.0 °F 66% 29.68 in 10.0 mi SW 19.6 mph 27.6 mph N/A   Clear
2:15 PM 44.6 °F 36.9 °F 32.0 °F 61% 29.67 in 10.0 mi WSW 18.4 mph 26.5 mph N/A   Clear
2:35 PM 44.6 °F 36.1 °F 32.0 °F 61% 29.68 in 10.0 mi WSW 21.9 mph - N/A   Clear
2:55 PM 44.6 °F 36.1 °F 32.0 °F 61% 29.69 in 10.0 mi WSW 21.9 mph 28.8 mph N/A   Clear
3:15 PM 44.6 °F 35.7 °F 32.0 °F 61% 29.70 in 10.0 mi WSW 24.2 mph 34.5 mph N/A   Clear
3:35 PM 44.6 °F 36.1 °F 32.0 °F 61% 29.70 in 10.0 mi WSW 21.9 mph 27.6 mph N/A   Clear
3:55 PM 44.6 °F 36.4 °F 32.0 °F 61% 29.70 in 10.0 mi WSW 20.7 mph 26.5 mph N/A   Clear
4:15 PM 44.6 °F 36.4 °F 32.0 °F 61% 29.71 in 10.0 mi WSW 20.7 mph - N/A   Clear
4:35 PM 44.6 °F 36.6 °F 32.0 °F 61% 29.71 in 10.0 mi WSW 19.6 mph - N/A   Scattered Clouds
4:55 PM 42.8 °F 34.5 °F 32.0 °F 66% 29.72 in 10.0 mi WSW 18.4 mph - N/A   Scattered Clouds
5:15 PM 42.8 °F 34.0 °F 32.0 °F 66% 29.73 in 10.0 mi West 20.7 mph 27.6 mph N/A   Clear
5:35 PM 42.8 °F 33.1 °F 32.0 °F 66% 29.73 in 10.0 mi West 25.3 mph 34.5 mph N/A   Clear
5:55 PM 41.0 °F 30.9 °F 30.2 °F 65% 29.73 in 10.0 mi West 24.2 mph 29.9 mph N/A   Scattered Clouds
6:15 PM 41.0 °F 30.2 °F 30.2 °F 65% 29.75 in 10.0 mi West 27.6 mph 41.4 mph N/A   Scattered Clouds
6:35 PM 41.0 °F 30.5 °F 30.2 °F 65% 29.75 in 10.0 mi West 26.5 mph 40.3 mph N/A   Mostly Cloudy
6:55 PM 41.0 °F 30.9 °F 30.2 °F 65% 29.75 in 10.0 mi West 24.2 mph 35.7 mph N/A   Mostly Cloudy
7:15 PM 39.2 °F 27.0 °F 26.6 °F 61% 29.77 in 10.0 mi WNW 32.2 mph 46.0 mph N/A   Overcast
7:35 PM 37.4 °F 25.9 °F 24.8 °F 60% 29.76 in 10.0 mi West 25.3 mph 41.4 mph N/A   Overcast
7:55 PM 37.4 °F 23.8 °F 19.4 °F 48% 29.77 in 10.0 mi West 36.8 mph 52.9 mph N/A   Scattered Clouds
8:15 PM 33.8 °F 17.8 °F 17.6 °F 52% 29.78 in 10.0 mi West 43.7 mph 50.6 mph N/A   Clear
8:35 PM 32.0 °F 16.5 °F 14.0 °F 48% 29.81 in 10.0 mi West 35.7 mph 57.5 mph N/A   Scattered Clouds
8:55 PM 28.4 °F 11.8 °F 10.4 °F 47% 29.83 in 10.0 mi West 34.5 mph 49.5 mph N/A   Clear
9:15 PM 26.6 °F 8.3 °F 8.6 °F 47% 29.85 in 10.0 mi West 40.3 mph 50.6 mph N/A   Clear
9:35 PM 24.8 °F 7.3 °F 8.6 °F 50% 29.86 in 10.0 mi West 32.2 mph 42.6 mph N/A   Clear
9:55 PM 23.0 °F 5.7 °F 10.4 °F 59% 29.87 in 10.0 mi West 28.8 mph 40.3 mph N/A   Scattered Clouds
10:15 PM 23.0 °F 5.7 °F 8.6 °F 54% 29.89 in 10.0 mi West 28.8 mph 41.4 mph N/A   Scattered Clouds
10:35 PM 21.2 °F 3.9 °F 8.6 °F 58% 29.91 in 10.0 mi West 26.5 mph 38.0 mph N/A   Clear
10:55 PM 19.4 °F 1.4 °F 5.0 °F 54% 29.93 in 10.0 mi WNW 26.5 mph 42.6 mph N/A   Clear
11:15 PM 19.4 °F 2.8 °F 5.0 °F 54% 29.94 in 10.0 mi West 21.9 mph 35.7 mph N/A   Clear
11:35 PM 17.6 °F -1.3 °F 5.0 °F 58% 29.96 in 10.0 mi West 27.6 mph 36.8 mph N/A   Clear